[[{"header":{"parameterUnit":"m.s-1","parameterCategory":1,"la1":30.2991,"la2":30.254,"lo1":-89.0895,"lo2":-89.0444,"dy":0.0017,"dx":0.0017,"nx":28,"ny":28,"refTime":"2025-09-08T03:00:00:Z","depth":0,"parameterNumber":2,"parameterNumberName":"U-component_of_WINDS"},"data":[0,0,0,0,0,0,0,0,0,0,0,0,0,0,0,0,0,0,0,0,0,0,0,0,0,0,0,0,0,0,0,0,0,0,0,0,0,0,0,0,0,0,0,0,0,0,0,0,0,0,0,0,0,0,0,0,0,0,-1.9792,-1.9793,0,-1.9833,-1.9833,-1.9834,-1.9745,-1.9742,-1.9739,-1.9737,-1.978,-1.9784,-1.9788,0,0,0,0,0,0,0,0,0,0,0,0,0,-1.9639,-1.9642,-1.9792,-1.9793,-1.9793,-1.9833,-1.9833,-1.9834,-1.9746,-1.9742,-1.9739,-1.9735,-1.9779,-1.9783,-1.9788,0,0,0,0,0,0,0,0,0,0,0,0,0,-1.9695,-1.9643,-1.9792,-1.9754,-1.9751,-1.9832,-1.9833,-1.9834,-1.9746,-1.9742,-1.9738,-1.9734,-1.9777,-1.9783,-1.9789,-1.991,0,0,-1.9806,-1.9809,0,0,0,0,0,0,0,0,-1.9692,-1.9701,-1.9759,-1.9757,-1.9753,-1.9779,-1.9795,-1.9859,-1.9747,-1.9748,-1.9737,-1.9732,-1.9783,-1.9788,-1.9805,-1.9912,-1.9913,-1.9807,-1.981,-1.9813,-1.9814,0,0,0,0,0,0,0,-1.9688,-1.9699,-1.9808,-1.976,-1.9757,-1.9735,-1.9738,-1.9807,-1.9789,-1.9748,-1.9741,-1.9747,-1.9781,-1.98,-1.9806,-1.9914,-1.9806,-1.9812,-1.9815,-1.9817,-2.0121,-2.0126,0,0,0,0,0,0,-1.9689,-1.9696,-1.9807,-1.9809,-1.9711,-1.9741,-1.9745,-1.9775,-1.9788,-1.9786,-1.9751,-1.9743,-1.9793,-1.9799,-1.9807,-1.995,-1.9812,-1.9818,-1.9821,-2.0117,-2.0122,-2.0127,0,0,0,0,0,0,-1.9686,-1.97,-1.9805,-1.9751,-1.9763,-1.9748,-1.9783,-1.9779,-1.9797,-1.9791,-1.9787,-1.9774,-1.9789,-1.9799,-1.9885,-1.9951,-1.982,-1.9826,-2.0111,-2.0118,-2.0125,-2.0238,0,0,0,0,0,0,-1.9682,-1.9699,-1.9745,-1.9753,-1.9766,-1.9883,-1.9787,-1.9782,-1.9807,-1.9797,-1.9811,-1.9809,-1.9787,-1.9877,-1.989,-1.9956,-1.983,-2.0105,-2.0114,-2.0123,-2.0228,-2.0248,-2.0264,0,0,0,0,0,-1.9677,-1.9776,-1.9748,-1.9762,-1.9823,-1.9886,-1.9894,-1.9866,-1.9813,-1.9859,-1.9855,-1.9809,-1.994,-1.9886,-1.9901,-1.9969,-2.0101,-2.0112,-2.0122,-2.022,-2.0244,-2.0264,0,0,0,0,0,0,-1.9778,-1.9776,-1.9745,-1.985,-1.9869,-1.9871,-1.9929,-1.9892,-1.9927,-1.9916,-1.9879,-1.9883,-1.9976,-1.9981,-1.992,-2.0087,-2.0012,-2.0026,-2.0081,-2.0104,-2.0122,-2.012,-1.9835,0,0,0,0,0,-1.9812,-1.9863,-1.9859,-1.9951,-1.9962,-1.9944,-1.9971,-1.9947,-1.9965,-1.9973,-1.9975,-1.9995,-2.0041,-2.0072,-2.0114,-2.0227,-2.0229,-2.0281,-2.0299,-2.0314,-2.0328,-2.0388,-2.0412,-2.0162,-2.0161,-2.0161,0,0,-1.9883,-1.9889,-1.9924,-1.9972,-1.9984,-2.0038,-1.9952,-2.0013,-2.0053,-1.9983,-2.0064,-2.0066,-2.0086,-2.0186,-2.023,-2.0193,-2.0397,-2.0327,-2.0339,-2.0345,-2.0401,-2.0425,-2.0446,-2.0169,-2.0167,-2.0166,0,0,-2.0042,-2.0051,-2.0129,-2.0142,-2.0161,-2.0148,-2.0167,-2.0175,-2.0173,-2.0254,-2.0202,-2.0249,-2.0328,-2.0345,-2.0364,-2.0526,-2.0486,-2.054,-2.0637,-2.0696,-2.0716,-2.0733,-2.0793,-2.0815,-2.0553,-2.0553,-2.0554,0,-2.0129,-2.0209,-2.0174,-2.0239,-2.0262,-2.0199,-2.0278,-2.0292,-2.0325,-2.0342,-2.0298,-2.0396,-2.0405,-2.0509,-2.0548,-2.0565,-2.0586,-2.0541,-2.0716,-2.0733,-2.0749,-2.0805,-2.0828,-2.056,-2.0559,-2.0559,-2.0558,0,-2.0316,-2.0372,-2.0432,-2.0464,-2.0493,-2.0565,-2.0541,-2.0575,-2.0547,-2.0539,-2.0622,-2.0629,-2.0672,-2.0694,-2.0668,-2.0794,-2.077,-2.0722,-2.0646,-2.078,-2.0832,-2.0854,-2.057,-2.0567,-2.0565,-2.0564,0,0,-2.0543,-2.0552,-2.0576,-2.0589,-2.0604,-2.0647,-2.0715,-2.0756,-2.0786,-2.0809,-2.0866,-2.0934,-2.0889,-2.091,-2.0885,-2.0937,-2.1067,-2.0883,-2.0883,-2.0919,-2.1207,-2.1246,-2.1271,-2.1039,-2.1043,-2.1046,-2.1206,0,-2.0701,-2.0819,-2.0789,-2.0906,-2.0958,-2.0897,-2.0956,-2.0972,-2.0966,-2.1008,-2.1,-2.1049,-2.0986,-2.0998,-2.1047,-2.1041,-2.1125,-2.1029,-2.1093,-2.1096,-2.1093,-2.1298,-2.1339,-2.149,-2.1226,-2.123,-2.1232,0,-2.0903,-2.0934,-2.1056,-2.1062,-2.1083,-2.1137,-2.1171,-2.1212,-2.1229,-2.122,-2.1243,-2.1207,-2.1274,-2.1196,-2.1288,-2.1224,-2.1247,-2.1249,-2.1254,-2.1261,-2.1175,-2.1314,-2.1537,-2.1561,-2.1264,-2.1261,-2.1259,0,-2.1059,-2.113,-2.1213,-2.1226,-2.1235,-2.1274,-2.128,-2.1291,-2.1317,-2.1347,-2.1364,-2.1401,-2.1422,-2.1452,-2.1427,-2.1371,-2.1524,-2.1443,-2.152,-2.1521,-2.1558,-2.1556,-2.1791,-2.1569,-2.1568,-2.1568,-2.1567,0,-2.1241,-2.1319,-2.1283,-2.1335,-2.1419,-2.1383,-2.1468,-2.1466,-2.1477,-2.1527,-2.1476,-2.1524,-2.1486,-2.1531,-2.1512,-2.1592,-2.1601,-2.1597,-2.1592,-2.1603,-2.1604,-2.1621,-2.1611,-2.1574,-2.1572,-2.1571,-2.157,0,-2.1432,-2.141,-2.1497,-2.1497,-2.1498,-2.1562,-2.1562,-2.1609,-2.1597,-2.1661,-2.1673,-2.1655,-2.1705,-2.1682,-2.1734,-2.1721,-2.1825,-2.1804,-2.182,-2.1816,-2.1895,-2.1889,-2.2151,-2.2184,-2.1938,-2.194,-2.1942,0,-2.1551,-2.1609,-2.1615,-2.1645,-2.1654,-2.1702,-2.1728,-2.1693,-2.1722,-2.1744,-2.1789,-2.1834,-2.1868,-2.195,-2.1942,-2.1982,-2.1963,-2.2052,-2.1969,-2.1979,-2.1967,-2.1965,-2.1971,-2.207,-2.2073,-2.2075,-2.2077,0,-2.1766,-2.1752,-2.1791,-2.1827,-2.1859,-2.1885,-2.1907,-2.1934,-2.19,-2.1935,-2.1985,-2.2012,-2.2064,-2.211,-2.2144,-2.2149,-2.2109,-2.2102,-2.2123,-2.2137,-2.2145,-2.2144,-2.1869,-2.2097,-2.2095,-2.2094,-2.2093,-2.2092,-2.1926,-2.1975,-2.1987,-2.2032,-2.2044,-2.2066,-2.211,-2.2103,-2.2144,-2.2184,-2.216,-2.2219,-2.2232,-2.2274,-2.2284,-2.233,-2.2295,-2.2324,-2.2332,-2.234,-2.2352,-2.2135,-2.2336,-2.2335,-2.2334,-2.2334,-2.2333,0,-2.2139,-2.2143,-2.2185,-2.2217,-2.2253,-2.2209,-2.223,-2.2263,-2.2316,-2.2331,-2.2365,-2.2423,-2.2466,-2.246,-2.25,-2.2537,-2.252,-2.2549,-2.2548,-2.255,-2.238,-2.2359,-2.2563,-2.2563,-2.2563,-2.2563,-2.2563,-2.2563,-2.2255,-2.2337,-2.2324,-2.241,-2.2413,-2.247,-2.2487,-2.2506,-2.2518,-2.2584,-2.262,-2.2615,-2.2622,-2.2661,-2.2699,-2.2696,-2.2714,-2.2752,-2.2742,-2.2584,-2.2562,-2.254,-2.2521,-2.2755,-2.2756,-2.2909,-2.291,-2.2911]},{"header":{"parameterUnit":"m.s-1","parameterCategory":1,"la1":30.2991,"la2":30.254,"lo1":-89.0895,"lo2":-89.0444,"dy":0.0017,"dx":0.0017,"nx":28,"ny":28,"refTime":"2025-09-08T03:00:00:Z","depth":0,"parameterNumber":3,"parameterNumberName":"V-component_of_WINDS"},"data":[0,0,0,0,0,0,0,0,0,0,0,0,0,0,0,0,0,0,0,0,0,0,0,0,0,0,0,0,0,0,0,0,0,0,0,0,0,0,0,0,0,0,0,0,0,0,0,0,0,0,0,0,0,0,0,0,0,0,-6.51,-6.5101,0,-6.5156,-6.5157,-6.5157,-6.504,-6.5036,-6.5032,-6.5028,-6.5081,-6.5086,-6.5091,0,0,0,0,0,0,0,0,0,0,0,0,0,-6.4885,-6.4889,-6.51,-6.5101,-6.5101,-6.5156,-6.5157,-6.5158,-6.504,-6.5036,-6.5031,-6.5027,-6.508,-6.5086,-6.5092,0,0,0,0,0,0,0,0,0,0,0,0,0,-6.4963,-6.4891,-6.51,-6.5049,-6.5045,-6.5156,-6.5157,-6.5158,-6.5041,-6.5035,-6.503,-6.5024,-6.5078,-6.5085,-6.5092,-6.5253,0,0,-6.5115,-6.5118,0,0,0,0,0,0,0,0,-6.4959,-6.4971,-6.5056,-6.5053,-6.5049,-6.5085,-6.51,-6.519,-6.5043,-6.5043,-6.5028,-6.5022,-6.5087,-6.5093,-6.5116,-6.5256,-6.5258,-6.5116,-6.512,-6.5124,-6.5126,0,0,0,0,0,0,0,-6.4954,-6.4968,-6.5122,-6.5057,-6.5053,-6.5022,-6.5027,-6.5117,-6.5096,-6.5042,-6.5034,-6.5042,-6.5084,-6.5109,-6.5117,-6.5259,-6.5116,-6.5122,-6.5127,-6.513,-6.5531,-6.5537,0,0,0,0,0,0,-6.4955,-6.4964,-6.512,-6.5124,-6.4989,-6.5031,-6.5036,-6.5079,-6.5095,-6.5092,-6.5047,-6.5037,-6.5099,-6.5108,-6.5118,-6.5306,-6.5124,-6.5131,-6.5135,-6.5525,-6.5532,-6.5539,0,0,0,0,0,0,-6.4951,-6.497,-6.5118,-6.5042,-6.5058,-6.504,-6.509,-6.5083,-6.5109,-6.5099,-6.5094,-6.5078,-6.5095,-6.5108,-6.522,-6.5307,-6.5134,-6.5141,-6.5517,-6.5527,-6.5535,-6.5685,0,0,0,0,0,0,-6.4946,-6.497,-6.5032,-6.5044,-6.5063,-6.5222,-6.5095,-6.5089,-6.5123,-6.5109,-6.5126,-6.5123,-6.5092,-6.521,-6.5228,-6.5314,-6.5147,-6.5509,-6.5522,-6.5532,-6.5673,-6.5699,-6.5721,0,0,0,0,0,-6.4938,-6.5071,-6.5036,-6.5055,-6.5141,-6.5227,-6.5237,-6.52,-6.513,-6.5191,-6.5185,-6.5122,-6.5294,-6.5222,-6.5242,-6.5331,-6.5504,-6.5518,-6.5532,-6.5662,-6.5693,-6.572,0,0,0,0,0,0,-6.5068,-6.5072,-6.5033,-6.5174,-6.5201,-6.5207,-6.5283,-6.5235,-6.5281,-6.5267,-6.5217,-6.5221,-6.5344,-6.5348,-6.5268,-6.5487,-6.5387,-6.5405,-6.5479,-6.5509,-6.5533,-6.5529,-6.5153,0,0,0,0,0,-6.5113,-6.5185,-6.5183,-6.5308,-6.5324,-6.5302,-6.5338,-6.5307,-6.5332,-6.5342,-6.5344,-6.537,-6.5429,-6.5469,-6.5523,-6.5672,-6.5673,-6.5743,-6.5767,-6.5787,-6.5804,-6.5882,-6.5912,-6.5584,-6.5584,-6.5584,0,0,-6.5207,-6.5218,-6.5266,-6.5334,-6.5352,-6.5425,-6.5312,-6.5394,-6.5448,-6.5354,-6.5461,-6.5463,-6.5488,-6.562,-6.5678,-6.5628,-6.5894,-6.5805,-6.5821,-6.5826,-6.5899,-6.593,-6.5958,-6.5594,-6.5592,-6.5591,0,0,-6.5416,-6.5432,-6.5537,-6.5557,-6.5585,-6.5569,-6.5595,-6.5608,-6.5606,-6.5713,-6.5644,-6.5705,-6.581,-6.583,-6.5854,-6.607,-6.6014,-6.6089,-6.6215,-6.6291,-6.6317,-6.634,-6.6416,-6.6444,-6.6105,-6.6105,-6.6106,0,-6.5528,-6.5638,-6.5597,-6.5684,-6.5716,-6.5636,-6.5741,-6.5761,-6.5806,-6.5828,-6.5772,-6.59,-6.5911,-6.6046,-6.6099,-6.6121,-6.6147,-6.6087,-6.6317,-6.6339,-6.636,-6.6432,-6.6461,-6.6114,-6.6113,-6.6112,-6.6111,0,-6.5774,-6.5851,-6.5932,-6.5979,-6.6019,-6.6115,-6.6087,-6.6132,-6.6097,-6.6087,-6.6196,-6.6206,-6.6261,-6.629,-6.6257,-6.642,-6.6388,-6.6325,-6.6224,-6.6401,-6.6467,-6.6495,-6.6127,-6.6124,-6.6121,-6.6119,0,0,-6.6067,-6.6089,-6.612,-6.6139,-6.6164,-6.6222,-6.6313,-6.6368,-6.6407,-6.644,-6.6514,-6.6604,-6.6545,-6.6573,-6.654,-6.6608,-6.6777,-6.6536,-6.6536,-6.658,-6.6957,-6.7004,-6.7037,-6.674,-6.6745,-6.6749,-6.6954,0,-6.6273,-6.6433,-6.6398,-6.6553,-6.6623,-6.6548,-6.6627,-6.665,-6.6642,-6.6698,-6.6689,-6.6753,-6.6672,-6.6688,-6.6751,-6.6743,-6.6852,-6.6728,-6.6807,-6.6811,-6.6804,-6.7072,-6.7122,-6.7316,-6.698,-6.6985,-6.6988,0,-6.6536,-6.658,-6.6743,-6.6756,-6.6784,-6.6856,-6.6903,-6.6959,-6.6982,-6.6971,-6.7002,-6.6957,-6.7045,-6.6943,-6.7063,-6.698,-6.701,-6.7011,-6.7017,-6.7023,-6.691,-6.7085,-6.7377,-6.7406,-6.7029,-6.7025,-6.7023,0,-6.6732,-6.6832,-6.6943,-6.6962,-6.698,-6.7032,-6.7042,-6.706,-6.7095,-6.7135,-6.7157,-6.7206,-6.7234,-6.7272,-6.724,-6.7169,-6.7365,-6.7261,-6.7358,-6.7359,-6.7403,-6.7401,-6.7704,-6.7423,-6.7423,-6.7422,-6.7421,0,-6.6966,-6.7069,-6.7031,-6.7099,-6.7211,-6.7169,-6.7281,-6.7281,-6.7298,-6.7363,-6.73,-6.7362,-6.7316,-6.7374,-6.7349,-6.7452,-6.7465,-6.7458,-6.745,-6.7464,-6.7465,-6.7483,-6.7469,-6.743,-6.7428,-6.7427,-6.7425,0,-6.7205,-6.7184,-6.7299,-6.7307,-6.7311,-6.7394,-6.7399,-6.7461,-6.7449,-6.7532,-6.7549,-6.7529,-6.7594,-6.7566,-6.7634,-6.7617,-6.7749,-6.7723,-6.7742,-6.7735,-6.7834,-6.7825,-6.8159,-6.82,-6.7893,-6.7896,-6.7899,0,-6.7356,-6.7433,-6.745,-6.749,-6.7504,-6.757,-6.7605,-6.7566,-6.7605,-6.7637,-6.7695,-6.7755,-6.78,-6.7907,-6.7897,-6.7948,-6.7923,-6.8037,-6.793,-6.7941,-6.7924,-6.792,-6.7927,-6.8058,-6.8062,-6.8065,-6.8067,0,-6.7626,-6.7611,-6.7666,-6.7718,-6.7762,-6.78,-6.7832,-6.7868,-6.783,-6.7877,-6.7943,-6.7979,-6.8048,-6.8108,-6.8153,-6.816,-6.8107,-6.8101,-6.8126,-6.814,-6.8148,-6.8145,-6.78,-6.8093,-6.809,-6.8088,-6.8087,-6.8086,-6.7825,-6.789,-6.7912,-6.7974,-6.7995,-6.8026,-6.8085,-6.808,-6.8135,-6.819,-6.8163,-6.8239,-6.8259,-6.8314,-6.8329,-6.8387,-6.8342,-6.8378,-6.8388,-6.8397,-6.841,-6.8139,-6.8395,-6.8394,-6.8393,-6.8393,-6.8392,0,-6.8091,-6.8101,-6.816,-6.8207,-6.8256,-6.8204,-6.8236,-6.828,-6.8349,-6.8373,-6.8419,-6.8494,-6.8552,-6.8547,-6.8599,-6.8646,-6.8623,-6.8661,-6.8657,-6.8659,-6.8448,-6.8421,-6.8679,-6.8679,-6.8679,-6.8678,-6.8678,-6.8678,-6.8236,-6.8343,-6.8331,-6.8447,-6.8455,-6.8532,-6.8555,-6.8583,-6.8601,-6.8689,-6.8737,-6.8733,-6.8745,-6.8797,-6.8847,-6.8843,-6.8865,-6.8912,-6.89,-6.8703,-6.8674,-6.8647,-6.8622,-6.8918,-6.8918,-6.9107,-6.9109,-6.911]}]]